User: anonymous   Login
Location: Unspecified
(0.0000°N, 0.0000°E)
Time: 03:09:52
(UTC+00:00)
Language:

Terriers - Orbit

View from above orbital plane
View from above orbital plane
View from above satellite
View from above satellite

Ground track
Ground track

The orbit data is extracted from the following two-line orbital elements,

1 25735U 99026A   18321.93842338 +.00001591 +00000-0 +32868-4 0  9990
2 25735 097.2271 129.7484 0002692 280.2712 079.8234 15.47364776086409
Epoch (UTC): 17 November 2018 22:31:19
Eccentricity: 0.0002692
inclination: 97.2271°
perigee height: 422 km
apogee height: 426 km
right ascension of ascending node: 129.7484°
argument of perigee: 280.2712°
revolutions per day: 15.47364776
mean anomaly at epoch: 79.8234°
orbit number at epoch: 8640

The dashed part of the orbit path shows where the satellite is in the earth's shadow,  

DLR